Temperature
17 17 17 16 16 15 14 13 13 12 12 12 11 11 11 11 11 11 10 10 10 10 10 10 10 11 11 11 11 12 12 12 11 11 11 11 11 11 12 12 13 13 13
18 18 17 17 16 15 14 13 12 12 12 12 11 11 11 11 11 10 10 10 10 10 10 10 10 10 11 11 12 12 12 12 11 11 11 11 10 11 11 11 11 12 12
18 18 17 17 16 15 14 13 12 12 12 12 11 11 11 10 10 10 10 10 10 10 10 10 11 11 11 12 12 12 13 12 11 10 10 11 10 10 10 11 11 11 11
18 18 17 17 16 15 14 13 13 12 12 12 11 11 10 10 10 10 10 10 10 10 10 10 11 11 12 12 12 13 13 12 10 10 11 11 10 10 10 10 11 11 11
18 18 17 17 16 15 14 14 13 12 12 11 11 11 10 10 10 10 10 10 10 10 10 10 11 11 12 12 13 13 12 12 11 11 11 11 11 10 10 11 11 11 11
18 17 17 16 16 15 14 14 13 12 12 11 11 11 10 10 10 10 10 10 10 10 10 11 11 11 12 12 12 12 12 12 11 11 11 11 11 10 11 11 11 11 11
18 17 17 16 16 15 14 13 13 12 12 11 11 10 10 10 11 11 11 11 11 11 11 11 11 11 12 12 12 12 12 12 12 11 11 12 11 11 11 11 12 12 12
17 17 17 16 15 15 14 13 13 12 12 11 11 10 10 10 11 11 11 11 11 11 11 11 11 12 12 12 12 12 12 12 12 12 12 12 12 12 12 12 12 12 12
17 16 17 16 15 14 13 13 12 12 11 11 11 10 10 10 11 11 11 11 11 11 11 11 11 11 12 12 12 12 12 12 12 12 12 12 12 12 12 12 12 12 12
16 16 16 16 15 14 13 12 12 12 11 11 11 10 10 10 10 10 11 11 11 11 11 11 11 11 11 11 11 11 11 11 12 12 12 12 12 12 12 12 12 12 12
16 15 15 15 14 14 13 12 12 11 11 11 10 10 10 10 10 10 10 11 11 11 11 11 11 11 11 11 11 11 11 11 11 11 11 11 11 11 11 12 12 12 12
16 15 14 14 14 13 12 12 11 11 11 10 10 10 10 10 9 9 10 10 10 10 11 11 11 11 11 11 11 11 11 11 11 11 11 11 11 11 11 11 12 12 12
16 15 14 14 13 13 12 11 11 11 10 10 10 10 10 9 9 9 9 9 10 10 10 10 10 10 10 10 10 10 11 11 11 11 11 11 11 11 11 11 11 11 11
16 16 15 14 13 12 12 11 11 11 10 10 10 10 9 9 9 9 9 9 9 9 9 9 9 9 9 9 9 9 10 10 10 11 11 11 11 11 11 11 11 11 11
16 16 15 14 13 13 12 11 11 11 10 10 10 9 9 9 9 9 9 8 8 8 8 8 8 8 8 8 8 8 9 9 10 10 10 11 11 11 11 11 11 11 11
16 15 15 14 13 13 12 11 11 10 10 10 10 9 9 9 9 8 8 8 8 8 8 8 8 8 7 7 7 7 8 8 9 9 9 10 10 11 11 11 11 11 11
15 15 14 14 13 13 12 11 11 10 10 10 9 9 9 9 8 8 8 8 8 8 7 7 7 7 7 8 8 8 8 8 8 8 9 9 9 10 10 10 11 11 10
15 15 14 14 13 12 12 11 11 10 10 10 9 9 9 8 8 8 8 8 8 7 7 7 7 7 8 8 7 8 7 7 8 8 8 9 9 9 9 9 9 9 9
15 15 14 14 13 12 12 11 10 10 10 9 9 9 9 8 8 8 8 8 8 8 7 7 7 7 7 7 7 7 7 7 8 8 8 8 9 9 9 8 8 8 8
15 14 14 14 13 12 12 11 10 10 10 9 9 9 9 8 8 8 8 8 8 8 8 7 7 7 7 7 7 7 7 7 8 8 8 8 8 8 8 8 8 8 8
14 14 14 14 13 12 12 11 10 10 10 10 10 10 9 9 9 8 8 8 8 8 8 7 7 7 7 6 6 6 7 7 8 8 8 7 7 7 7 7 7 7 7
14 14 14 13 13 12 12 11 11 10 10 10 10 10 9 9 9 9 9 8 8 8 8 7 7 6 6 6 5 4 4 5 6 6 7 7 7 6 6 6 6 6 6
14 14 14 13 13 12 12 12 11 10 10 10 9 9 9 9 9 8 8 8 8 7 7 7 6 6 6 6 5 4 4 4 4 5 5 6 6 5 5 5 5 5 5
13 13 13 13 12 12 12 11 11 10 9 9 9 8 8 8 8 8 8 7 7 7 7 6 6 6 5 5 5 5 4 4 3 3 4 4 5 4 4 4 4 4 4
13 13 13 12 12 12 11 11 10 10 9 9 8 8 7 7 7 7 7 7 7 7 6 6 6 6 5 5 5 5 4 4 3 2 2 3 4 4 4 3 3 4 4
12 12 12 12 12 11 11 11 10 10 9 8 8 7 7 7 7 6 6 6 6 6 6 6 6 5 5 5 4 4 3 3 3 3 2 2 2 2 2 2 3 3 3
Wind_Speed
10 19 20 18 16 14 12 12 11 11 11 11 11 12 12 13 13 13 14 14 14 14 14 15 15 16 16 16 16 16 16 16 17 18 19 18 18 18 18 17 16 16 18
13 21 21 19 17 15 13 12 12 11 10 11 11 11 11 11 12 12 13 13 13 13 14 14 14 15 15 15 15 15 15 14 14 15 17 17 17 17 17 17 16 15 16
16 22 21 20 18 16 14 13 12 11 10 10 10 10 10 11 11 11 12 12 12 12 13 13 13 13 14 14 14 14 13 13 12 14 15 15 15 16 16 16 16 16 15
18 22 20 21 19 17 15 14 12 11 10 10 10 9 9 10 10 10 10 11 11 11 12 12 12 12 12 12 12 12 11 11 12 14 14 14 13 13 14 14 14 14 15
16 21 21 22 19 18 16 14 13 12 11 10 9 9 9 9 9 9 9 9 10 10 10 11 11 11 11 11 11 10 9 10 10 12 12 13 12 12 12 12 12 12 13
13 20 23 22 20 18 16 15 14 12 11 10 9 8 8 8 8 8 8 8 8 8 8 9 9 9 9 9 9 9 8 10 10 11 11 12 11 10 10 10 10 10 11
11 19 23 22 20 18 17 15 14 12 11 10 9 8 8 8 7 7 6 6 6 6 6 7 7 7 7 7 8 8 8 9 8 7 9 11 8 8 8 8 8 8 8
10 18 23 22 20 18 17 16 14 13 11 10 9 8 8 7 6 6 5 4 4 4 4 5 5 5 5 6 6 6 7 8 8 7 6 7 6 6 6 6 6 6 6
12 15 20 20 19 18 17 16 15 13 12 11 9 8 8 7 6 5 5 4 3 2 2 2 2 3 3 3 4 4 5 7 9 6 4 4 3 4 4 4 4 4 4
9 10 17 19 18 17 16 16 15 14 12 11 10 9 8 7 7 6 7 6 4 3 2 2 2 3 3 3 4 4 5 8 11 7 5 2 2 4 5 5 5 5 5
8 8 13 16 17 17 17 16 16 14 13 12 11 10 9 9 11 11 10 9 7 5 5 5 5 6 6 7 8 7 7 10 11 7 6 5 6 7 9 9 8 8 8
9 8 7 11 15 17 15 16 16 14 14 13 12 13 11 11 9 9 11 11 9 8 8 9 9 9 10 12 12 11 11 13 12 9 10 10 10 11 12 12 12 12 12
10 9 8 7 14 14 12 14 13 13 14 15 14 14 14 12 7 7 10 10 11 10 11 12 12 12 14 13 8 11 13 12 9 10 10 12 13 14 15 15 15 15 16
11 10 8 7 9 12 12 11 12 11 11 12 14 13 12 9 6 6 6 9 12 13 14 12 11 12 14 13 11 11 12 12 12 13 14 15 16 17 18 18 19 19 19
10 10 9 7 7 8 8 8 9 9 11 12 12 12 10 7 6 7 7 8 8 8 8 9 9 10 10 10 11 11 12 13 14 15 16 18 19 20 21 22 22 22 22
9 10 9 8 7 8 5 5 6 7 9 10 11 12 11 9 7 7 6 7 7 8 8 7 8 8 7 8 7 9 11 14 16 18 18 20 21 23 24 24 25 25 25
8 8 8 8 7 7 6 6 6 7 8 7 8 11 11 11 9 8 6 5 7 9 9 8 8 7 5 6 6 9 11 14 15 16 18 19 20 23 25 26 27 27 28
7 8 8 6 6 7 5 6 5 6 6 6 7 8 10 11 11 8 5 5 8 9 7 4 3 4 5 6 6 6 7 10 13 16 17 19 19 20 23 26 27 28 29
8 9 8 7 4 5 5 5 3 2 2 2 3 5 6 7 8 8 6 6 8 7 5 3 4 4 5 6 6 7 6 6 8 13 13 17 19 20 20 24 27 28 29
9 9 9 7 5 6 4 3 3 2 1 0 2 3 4 5 7 7 6 6 7 4 4 4 5 5 5 6 8 8 7 8 7 9 11 15 17 19 20 21 22 23 28
9 9 8 7 6 5 3 3 3 2 1 1 1 2 3 4 5 4 3 4 4 4 5 5 4 5 5 4 5 6 7 10 13 12 9 9 11 16 18 18 19 19 20
8 8 8 8 7 6 4 3 3 2 1 1 1 0 2 3 3 3 3 3 4 4 5 5 5 4 4 3 3 4 6 6 6 8 6 7 8 9 9 15 17 17 18
8 7 8 8 7 7 6 4 3 2 0 0 0 0 1 1 2 2 3 4 4 3 4 6 5 6 5 4 4 5 4 5 5 5 7 7 6 6 6 10 14 17 19
7 7 8 8 8 6 5 4 3 2 2 1 1 1 1 2 2 1 3 4 4 3 5 6 5 5 5 5 5 5 7 7 5 6 5 5 7 8 9 9 9 15 19
7 7 7 8 7 6 5 4 3 4 2 2 2 2 2 1 2 3 3 3 4 4 5 6 6 6 5 6 6 6 7 6 8 9 11 7 7 8 10 10 7 10 17
6 6 7 8 7 5 5 5 5 4 3 3 3 3 3 3 1 1 2 3 5 5 5 6 6 7 7 8 7 7 7 7 7 8 11 11 11 8 8 8 8 7 13
Wind_Direction
136 150 158 155 152 147 141 133 124 114 105 98 93 88 85 80 75 73 71 68 65 63 62 60 58 59 60 60 61 62 62 60 58 57 58 58 60 60 59 58 57 52 54
140 151 159 157 155 151 146 137 130 121 112 105 98 92 88 84 79 74 71 69 66 63 63 62 59 59 59 60 61 63 63 61 58 58 57 53 57 60 59 57 57 57 56
138 149 160 159 158 155 150 143 137 130 122 113 106 98 93 88 83 78 74 71 68 65 64 63 61 60 61 61 61 61 61 58 51 57 57 46 50 57 58 56 55 56 57
142 150 161 161 160 158 153 149 145 138 131 123 115 108 102 96 89 84 78 73 70 66 64 64 64 62 61 61 60 59 58 52 44 59 54 46 44 55 55 54 52 52 53
143 153 160 162 163 161 157 155 151 144 138 131 123 117 110 103 95 88 81 76 72 68 65 63 63 62 60 59 58 55 49 34 29 58 58 52 41 52 56 53 50 50 49
145 152 157 163 165 164 161 159 156 152 147 141 134 128 120 113 104 96 87 81 75 70 65 62 60 59 58 56 54 49 34 18 34 48 55 54 36 46 54 52 49 47 46
149 150 157 165 168 167 165 164 162 159 156 152 147 142 134 126 118 110 103 93 83 74 66 61 57 54 52 50 46 40 24 8 24 37 51 60 36 39 44 44 42 40 39
146 147 156 167 170 170 170 169 167 166 165 162 159 156 150 143 136 132 126 114 97 82 68 58 51 47 42 39 35 27 9 355 349 8 40 63 36 24 32 30 25 25 27
146 145 153 168 172 174 175 174 173 173 173 172 170 168 164 162 162 161 157 152 143 123 90 50 31 22 15 11 7 358 344 331 321 329 344 61 18 349 354 358 351 349 351
142 147 154 166 172 175 177 179 177 178 180 181 179 176 175 179 188 191 188 185 185 194 215 245 277 291 298 296 295 297 302 299 289 277 272 200 263 297 301 300 300 301 302
152 157 157 166 171 175 178 182 181 183 186 185 183 178 180 198 204 204 204 192 200 217 234 245 255 264 268 266 259 256 268 270 269 260 260 241 253 270 278 280 279 278 279
174 175 168 165 167 173 179 175 180 185 189 191 193 187 195 220 221 192 184 187 207 226 241 250 253 260 261 255 245 238 246 253 256 251 243 238 250 261 267 271 272 271 270
174 174 177 166 164 168 170 166 177 186 187 196 205 196 199 216 207 171 172 189 209 223 235 243 238 242 243 242 222 220 237 251 260 265 258 247 253 259 263 265 267 267 267
162 168 175 164 157 164 166 169 173 181 183 190 205 207 197 198 198 211 213 202 207 211 218 226 224 240 242 239 235 236 247 252 249 249 253 254 256 259 263 264 264 264 264
152 161 170 162 155 160 162 172 178 181 181 189 197 208 204 185 191 215 230 233 230 230 222 220 233 251 257 251 241 239 243 251 254 253 250 253 256 258 262 264 263 262 261
146 154 161 165 161 158 161 170 179 190 183 189 189 198 211 208 206 214 230 237 236 242 251 247 247 255 261 262 258 254 252 251 251 251 251 251 253 256 259 262 263 262 261
141 143 150 162 162 158 167 182 184 192 187 188 193 198 209 217 223 225 230 241 245 247 248 252 261 274 275 271 265 265 263 258 255 253 253 251 250 252 257 261 262 263 263
120 126 127 135 155 157 158 174 185 193 189 182 198 208 214 220 226 236 239 245 256 259 255 247 244 268 273 268 262 257 257 257 255 254 254 253 251 250 254 260 263 265 265
107 110 112 117 139 140 138 146 158 157 138 156 211 226 224 230 234 240 244 251 262 263 255 246 246 247 268 278 278 272 267 263 262 262 255 252 250 249 250 257 263 266 268
90 101 109 115 118 114 111 122 110 87 56 175 239 255 247 246 247 248 254 266 273 271 266 256 256 258 255 260 276 279 272 268 264 260 257 256 253 251 251 252 256 260 265
87 98 107 112 108 105 106 114 117 136 177 199 231 273 282 266 261 254 253 269 277 274 269 264 265 275 279 279 297 296 279 259 255 255 249 247 245 246 247 249 252 252 257
100 103 106 108 106 99 96 93 90 94 82 80 47 7 307 298 281 260 247 252 258 264 273 273 267 269 274 268 262 306 310 307 277 262 259 248 245 242 243 250 252 251 248
99 104 106 104 100 98 101 97 88 84 52 84 151 153 263 289 316 295 275 269 271 262 262 262 257 257 266 267 222 220 264 277 313 294 279 275 268 261 255 254 253 252 250
100 100 103 105 104 105 107 101 111 101 91 99 103 178 245 199 185 281 296 293 285 276 272 267 255 247 248 261 263 237 234 238 271 297 283 284 295 284 273 265 257 254 251
108 107 109 106 104 103 98 90 70 61 48 45 21 13 346 293 180 206 234 269 278 271 269 271 275 265 251 248 248 253 260 261 248 262 281 274 265 259 263 262 259 257 255
120 118 118 113 110 107 100 96 82 64 27 22 12 6 346 329 311 270 236 264 271 267 262 262 262 263 258 257 255 249 249 251 254 257 273 280 279 272 267 271 273 270 271
Height
1548 1549 1550 1551 1552 1554 1555 1556 1557 1558 1559 1559 1560 1560 1560 1560 1560 1560 1559 1559 1559 1559 1558 1558 1558 1558 1557 1557 1557 1557 1557 1557 1557 1557 1557 1557 1557 1556 1556 1556 1555 1555 1556
1548 1548 1550 1552 1553 1554 1555 1557 1558 1559 1559 1560 1560 1561 1561 1561 1561 1560 1560 1560 1560 1559 1559 1558 1558 1558 1558 1558 1557 1558 1558 1558 1558 1558 1558 1558 1558 1557 1557 1556 1556 1556 1556
1547 1548 1550 1552 1553 1554 1556 1557 1558 1559 1560 1560 1561 1561 1561 1561 1561 1561 1561 1561 1560 1560 1560 1559 1559 1559 1559 1558 1558 1558 1559 1559 1559 1559 1558 1558 1558 1558 1558 1557 1557 1557 1557
1547 1548 1550 1552 1553 1554 1556 1557 1558 1559 1560 1561 1561 1562 1562 1562 1562 1562 1562 1561 1561 1561 1560 1560 1560 1559 1559 1559 1559 1559 1559 1560 1560 1559 1559 1559 1559 1559 1558 1558 1558 1558 1557
1547 1548 1550 1551 1553 1554 1556 1557 1558 1559 1560 1561 1562 1562 1562 1563 1563 1563 1562 1562 1562 1561 1561 1561 1561 1560 1560 1560 1560 1560 1560 1560 1560 1560 1559 1559 1559 1559 1559 1558 1558 1558 1558
1547 1547 1549 1551 1553 1554 1556 1557 1559 1560 1561 1561 1562 1562 1563 1563 1563 1563 1563 1563 1562 1562 1562 1562 1562 1561 1561 1561 1561 1561 1561 1561 1561 1561 1560 1560 1560 1560 1559 1559 1558 1558 1558
1546 1547 1549 1551 1552 1554 1556 1557 1559 1560 1561 1562 1562 1563 1563 1564 1564 1564 1564 1563 1563 1563 1563 1563 1563 1562 1562 1562 1562 1562 1562 1562 1561 1561 1561 1560 1560 1560 1559 1559 1559 1558 1558
1546 1546 1548 1550 1552 1553 1555 1557 1558 1559 1561 1562 1562 1563 1564 1564 1564 1564 1564 1564 1564 1564 1564 1564 1563 1563 1563 1563 1563 1562 1562 1562 1562 1561 1561 1561 1561 1560 1560 1559 1559 1559 1558
1545 1545 1546 1549 1551 1552 1554 1556 1558 1559 1560 1561 1562 1563 1564 1564 1564 1564 1565 1565 1565 1564 1564 1564 1564 1564 1563 1563 1563 1563 1562 1562 1562 1561 1561 1561 1560 1560 1559 1559 1559 1558 1558
1544 1545 1545 1547 1549 1551 1553 1555 1557 1559 1560 1561 1562 1563 1563 1564 1564 1564 1564 1565 1565 1565 1565 1564 1564 1564 1563 1563 1563 1562 1562 1562 1561 1561 1560 1560 1560 1559 1559 1558 1558 1557 1557
1543 1544 1545 1546 1548 1550 1552 1554 1556 1558 1559 1560 1561 1562 1563 1563 1563 1564 1564 1564 1564 1564 1564 1564 1564 1563 1563 1562 1562 1562 1561 1561 1560 1560 1559 1559 1559 1558 1558 1557 1556 1556 1555
1541 1542 1544 1545 1546 1548 1551 1552 1554 1556 1557 1559 1560 1561 1562 1562 1563 1563 1563 1564 1564 1564 1563 1563 1563 1562 1562 1561 1560 1560 1560 1559 1558 1558 1558 1558 1557 1557 1556 1555 1554 1554 1553
1538 1540 1543 1545 1546 1547 1549 1551 1553 1554 1556 1557 1559 1560 1560 1561 1562 1563 1563 1563 1563 1562 1562 1561 1561 1560 1560 1559 1558 1557 1557 1557 1557 1556 1556 1555 1555 1554 1554 1553 1552 1551 1551
1536 1538 1540 1543 1545 1546 1548 1550 1551 1553 1554 1556 1557 1558 1559 1560 1561 1561 1561 1561 1560 1560 1559 1559 1558 1558 1557 1557 1556 1555 1554 1554 1553 1553 1552 1552 1552 1551 1550 1550 1549 1548 1547
1534 1536 1538 1541 1543 1545 1547 1548 1550 1552 1553 1554 1555 1557 1558 1558 1558 1559 1559 1559 1559 1559 1558 1557 1556 1556 1555 1555 1553 1552 1550 1550 1549 1548 1547 1547 1547 1546 1546 1545 1544 1544 1543
1532 1534 1536 1538 1541 1543 1545 1547 1549 1550 1552 1553 1553 1554 1555 1556 1556 1556 1557 1557 1557 1556 1556 1555 1554 1553 1552 1551 1550 1548 1547 1545 1544 1543 1542 1541 1540 1539 1539 1539 1539 1538 1537
1530 1532 1534 1536 1538 1540 1543 1545 1547 1548 1550 1551 1552 1552 1553 1553 1554 1554 1554 1554 1554 1553 1552 1552 1550 1549 1548 1547 1545 1544 1542 1541 1539 1537 1536 1535 1534 1533 1532 1531 1531 1531 1530
1529 1530 1532 1534 1536 1539 1541 1543 1545 1547 1548 1549 1549 1550 1550 1551 1551 1551 1551 1550 1550 1550 1549 1548 1546 1545 1544 1542 1540 1538 1537 1535 1533 1532 1530 1529 1527 1526 1525 1524 1523 1522 1522
1527 1529 1530 1532 1535 1537 1539 1541 1543 1544 1545 1546 1547 1547 1548 1548 1548 1547 1547 1547 1547 1546 1545 1544 1542 1541 1539 1537 1535 1533 1531 1529 1527 1526 1523 1522 1520 1519 1518 1517 1516 1515 1514
1526 1528 1529 1531 1534 1535 1537 1539 1541 1542 1543 1543 1544 1544 1544 1544 1544 1544 1543 1543 1542 1541 1541 1540 1538 1537 1535 1532 1530 1527 1524 1523 1521 1519 1517 1515 1513 1512 1511 1510 1509 1508 1507
1526 1527 1529 1531 1533 1534 1536 1538 1539 1540 1541 1541 1541 1541 1541 1541 1541 1540 1539 1539 1538 1538 1537 1536 1534 1532 1531 1529 1525 1521 1517 1515 1513 1510 1509 1507 1507 1506 1505 1504 1503 1501 1500
1527 1528 1530 1531 1533 1534 1536 1537 1538 1539 1539 1540 1540 1540 1539 1539 1538 1537 1537 1536 1535 1534 1533 1532 1530 1528 1527 1526 1523 1518 1511 1507 1505 1505 1504 1503 1502 1501 1499 1498 1496 1494 1492
1527 1529 1530 1532 1533 1535 1536 1537 1538 1539 1539 1539 1539 1538 1538 1537 1536 1535 1534 1533 1532 1531 1530 1528 1527 1525 1523 1522 1520 1518 1512 1504 1500 1497 1497 1497 1496 1495 1493 1491 1489 1487 1485
1528 1530 1531 1533 1534 1535 1536 1537 1538 1538 1538 1538 1538 1537 1536 1535 1534 1533 1532 1530 1529 1528 1526 1525 1523 1521 1519 1517 1516 1514 1511 1506 1501 1490 1487 1488 1488 1487 1486 1484 1481 1479 1478
1528 1530 1531 1533 1534 1535 1536 1537 1537 1537 1537 1536 1536 1535 1534 1533 1531 1530 1529 1527 1526 1524 1523 1521 1519 1517 1515 1512 1510 1507 1505 1502 1498 1492 1481 1477 1477 1477 1476 1475 1473 1471 1470
1528 1530 1531 1533 1534 1534 1535 1535 1535 1535 1535 1534 1533 1532 1531 1530 1529 1528 1526 1524 1522 1520 1518 1516 1514 1512 1509 1507 1504 1501 1499 1495 1491 1487 1478 1471 1468 1466 1467 1466 1465 1463 1461